Edson, Alberta

12:09 AM MST on January 23, 2018 (GMT -0700)
Edson

Weather History for CYET - January, 2013

Change the Weather History Date:

Friday, January 18, 2013

  Actual Average Record
Temperature  
Mean Temperature 32 °F -  
Max Temperature 45 °F 19 °F 55 °F (2009)
Min Temperature 19 °F 0 °F -34 °F (2012)
Degree Days  
Heating Degree Days 33    
Moisture  
Dew Point 23 °F    
Average Humidity 62    
Maximum Humidity 80    
Minimum Humidity 34    
Precipitation  
Precipitation 0.00 in - - ()
Sea Level Pressure  
Sea Level Pressure 29.87 in    
Wind  
Wind Speed 12 mph ()    
Max Wind Speed 30 mph    
Max Gust Speed 45 mph    
Visibility 9.1 miles    
Events Rain , Snow    
Averages and records for this station are not official NWS values.
T = Trace of Precipitation, MM = Missing Value Source: Averaged Metar Reports

Daily Weather History Graph

Daily Weather History Graph

Search for Another Location

Airport or City:

Trip Planner

Search our weather history database for the weather conditions in past years. The results will help you decide how hot, cold, wet, or windy it might be!

Date:

Astronomy

Jan. 18, 2013 Rise Set
Actual Time 8:50 AM MST 5:02 PM MST
Civil Twilight 8:10 AM MST 5:43 PM MST
Nautical Twilight 7:26 AM MST 6:26 PM MST
Astronomical Twilight 6:44 AM MST 7:08 PM MST
Moon 11:18 AM MST (1/18) 1:07 AM MST (1/18)
Length of Visible Light 9h 32m
Length of Day
8h 12m
Waxing Crescent, 48% of the Moon is Illuminated
Jan 18
Waxing Crescent
Jan 18
First Quarter
Jan 26
Full
Feb 3
Last Quarter
Feb 10
New

Hourly Weather History & Observations

Time (MST) Temp. Windchill Dew Point Humidity Pressure Visibility Wind Dir Wind Speed Gust Speed Precip Events Conditions
12:00 AM 42.8 °F 37.0 °F 21.2 °F 42% 29.74 in 9.0 mi West 10.4 mph - N/A   Clear
1:00 AM 44.6 °F 38.4 °F 21.2 °F 39% 29.74 in 9.0 mi West 12.7 mph 25.3 mph N/A   Scattered Clouds
2:00 AM 42.8 °F 35.4 °F 23.0 °F 46% 29.73 in 9.0 mi WSW 15.0 mph 24.2 mph N/A   Mostly Cloudy
3:00 AM 42.8 °F 38.0 °F 23.0 °F 46% 29.73 in 9.0 mi West 8.1 mph - N/A   Mostly Cloudy
4:00 AM 42.8 °F 36.6 °F 23.0 °F 46% 29.72 in 9.0 mi West 11.5 mph - N/A   Clear
5:00 AM 39 °F - 23 °F 40% 29.71 in 10 mi WSW 6.9 mph - -  
5:00 AM 39.2 °F 34.2 °F 23.0 °F 52% 29.71 in 9.0 mi WSW 6.9 mph - N/A   Scattered Clouds
6:00 AM 39.2 °F 32.5 °F 24.8 °F 56% 29.71 in 9.0 mi West 10.4 mph - N/A   Scattered Clouds
7:00 AM 41.0 °F 34.7 °F 24.8 °F 53% 29.70 in 9.0 mi West 10.4 mph - N/A   Clear
8:00 AM 32.0 °F 24.8 °F 24.8 °F 75% 29.73 in 9.0 mi West 8.1 mph - N/A   Clear
9:00 AM 33.8 °F 28.6 °F 23.0 °F 65% 29.75 in 9.0 mi WNW 5.8 mph - N/A   Clear
10:00 AM 35.6 °F 30.7 °F 24.8 °F 65% 29.77 in 9.0 mi WNW 5.8 mph - N/A   Partly Cloudy
11:00 AM 42 °F - 26 °F 40% 29.76 in 10 mi WNW 13.8 mph - -  
11:00 AM 42.8 °F 35.8 °F 24.8 °F 49% 29.75 in 9.0 mi WNW 13.8 mph 20.7 mph N/A   Clear
12:00 PM 42.8 °F 34.0 °F 23.0 °F 46% 29.74 in 9.0 mi WNW 20.7 mph 32.2 mph N/A   Clear
1:00 PM 44.6 °F 37.2 °F 21.2 °F 39% 29.73 in 9.0 mi WNW 17.3 mph 31.1 mph N/A   Clear
2:00 PM 46.4 °F 38.1 °F 19.4 °F 34% 29.73 in 9.0 mi WNW 24.2 mph 33.4 mph N/A   Scattered Clouds
3:00 PM 44.6 °F 35.9 °F 17.6 °F 34% 29.74 in 9.0 mi WNW 23.0 mph 38.0 mph N/A   Scattered Clouds
4:00 PM 44.6 °F 34.7 °F 17.6 °F 34% 29.79 in 9.0 mi WNW 29.9 mph 44.9 mph N/A   Mostly Cloudy
4:20 PM 39.2 °F 29.0 °F 26.6 °F 61% 29.84 in 9.0 mi North 21.9 mph 31.1 mph N/A   Partly Cloudy
4:50 PM 33.8 °F 22.8 °F 26.6 °F 75% 29.88 in 9.0 mi North 18.4 mph 26.5 mph N/A Rain Light Rain
4:59 PM 33.8 °F 22.2 °F 26.6 °F 75% 29.89 in 9.0 mi North 20.7 mph 29.9 mph N/A   Mostly Cloudy
5:00 PM 34 °F - 26 °F 63% 29.90 in 10 mi North 20.7 mph - -  
5:00 PM 33.8 °F 22.2 °F 26.6 °F 75% 29.90 in 9.0 mi North 20.7 mph 29.9 mph N/A   Mostly Cloudy
5:02 PM 33.8 °F 22.5 °F 26.6 °F 75% 29.90 in 9.0 mi NNW 19.6 mph 29.9 mph N/A Rain Light Rain
5:13 PM 32.0 °F 20.1 °F 24.8 °F 75% 29.91 in 9.0 mi NNW 19.6 mph 27.6 mph N/A Rain Light Rain
5:18 PM 32.0 °F 20.8 °F 24.8 °F 75% 29.91 in 9.0 mi NNW 17.3 mph 27.6 mph N/A   Overcast
5:19 PM 32.0 °F 20.8 °F 24.8 °F 75% 29.92 in 9.0 mi NNW 17.3 mph 27.6 mph N/A Snow Light Snow
5:22 PM 32.0 °F 20.8 °F 24.8 °F 75% 29.92 in 9.0 mi NNW 17.3 mph 26.5 mph N/A Rain , Snow Light Snow
5:24 PM 32.0 °F 20.8 °F 24.8 °F 75% 29.93 in 9.0 mi NNW 17.3 mph 25.3 mph N/A Rain , Snow Light Snow
5:27 PM 32.0 °F 20.8 °F 24.8 °F 75% 29.93 in 9.0 mi NNW 17.3 mph 25.3 mph N/A Rain Light Rain
5:37 PM 32.0 °F 21.2 °F 24.8 °F 75% 29.93 in 9.0 mi North 16.1 mph 24.2 mph N/A   Overcast
6:00 PM 30.2 °F 19.8 °F 24.8 °F 80% 29.95 in 9.0 mi NNW 13.8 mph 20.7 mph N/A Snow Light Snow
6:11 PM 30.2 °F 20.2 °F 24.8 °F 80% 29.96 in 9.0 mi NNW 12.7 mph 19.6 mph N/A   Overcast
6:46 PM 28.4 °F 17.5 °F 23.0 °F 80% 30.00 in 9.0 mi NNW 13.8 mph - N/A Snow Light Snow
7:00 PM 28.4 °F 19.7 °F 21.2 °F 74% 30.01 in 9.0 mi NNW 9.2 mph - N/A Snow Light Snow
8:00 PM 23.0 °F 11.7 °F 17.6 °F 80% 30.11 in 9.0 mi North 11.5 mph 19.6 mph N/A Snow Light Snow
9:00 PM 19.4 °F 6.6 °F 14.0 °F 80% 30.19 in 9.0 mi North 12.7 mph 19.6 mph N/A Snow Light Snow
10:00 PM 19.4 °F 8.6 °F 12.2 °F 74% 30.22 in 9.0 mi NW 9.2 mph - N/A Snow Light Snow
11:00 PM 19 °F - 13 °F 68% 30.24 in 10 mi West 6.9 mph - - Snow Light Snow
11:00 PM 19.4 °F 8.6 °F 12.2 °F 74% 30.24 in 9.0 mi WNW 9.2 mph - N/A Snow Light Snow